Year,Month,Day,Hour,Minute,Value (Times are PST for temperature in C)
2009,10,27,00,00,7.20
2009,10,27,00,01,7.20
2009,10,27,00,02,7.20
2009,10,27,00,03,7.20
2009,10,27,00,04,7.10
2009,10,27,00,05,7.10
2009,10,27,00,06,7.10
2009,10,27,00,07,7.10
2009,10,27,00,08,7.00
2009,10,27,00,09,7.00
2009,10,27,00,10,6.90
2009,10,27,00,11,6.90
2009,10,27,00,12,6.80
2009,10,27,00,13,6.80
2009,10,27,00,14,6.80
2009,10,27,00,15,6.70
2009,10,27,00,16,6.70
2009,10,27,00,17,6.60
2009,10,27,00,18,6.60
2009,10,27,00,19,6.60
2009,10,27,00,20,6.60
2009,10,27,00,21,6.60
2009,10,27,00,22,6.60
2009,10,27,00,23,6.60
2009,10,27,00,24,6.70
2009,10,27,00,25,6.70
2009,10,27,00,26,6.70
2009,10,27,00,27,6.70
2009,10,27,00,28,6.70
2009,10,27,00,29,6.70
2009,10,27,00,30,6.70
2009,10,27,00,31,6.60
2009,10,27,00,32,6.60
2009,10,27,00,33,6.50
2009,10,27,00,34,6.40
2009,10,27,00,35,6.30
2009,10,27,00,36,6.20
2009,10,27,00,37,6.20
2009,10,27,00,38,6.10
2009,10,27,00,39,6.00
2009,10,27,00,40,5.90
2009,10,27,00,41,5.90
2009,10,27,00,42,5.80
2009,10,27,00,43,5.70
2009,10,27,00,44,5.70
2009,10,27,00,45,5.70
2009,10,27,00,46,5.70
2009,10,27,00,47,5.70
2009,10,27,00,48,5.70
2009,10,27,00,49,5.70
2009,10,27,00,50,5.70
2009,10,27,00,51,5.70
2009,10,27,00,52,5.70
2009,10,27,00,53,5.70
2009,10,27,00,54,5.70
2009,10,27,00,55,5.70
2009,10,27,00,56,5.80
2009,10,27,00,57,5.80
2009,10,27,00,58,5.80
2009,10,27,00,59,5.80
2009,10,27,01,00,5.80
2009,10,27,01,01,5.80
2009,10,27,01,02,5.80
2009,10,27,01,03,5.80
2009,10,27,01,04,5.80
2009,10,27,01,05,5.80
2009,10,27,01,06,5.80
2009,10,27,01,07,5.90
2009,10,27,01,08,5.90
2009,10,27,01,09,5.90
2009,10,27,01,10,6.00
2009,10,27,01,11,6.00
2009,10,27,01,12,6.10
2009,10,27,01,13,6.10
2009,10,27,01,14,6.20
2009,10,27,01,15,6.20
2009,10,27,01,16,6.20
2009,10,27,01,17,6.10
2009,10,27,01,18,6.10
2009,10,27,01,19,6.00
2009,10,27,01,20,6.00
2009,10,27,01,21,6.00
2009,10,27,01,22,5.90
2009,10,27,01,23,5.90
2009,10,27,01,24,5.90
2009,10,27,01,25,5.90
2009,10,27,01,26,5.90
2009,10,27,01,27,5.90
2009,10,27,01,28,5.90
2009,10,27,01,29,5.90
2009,10,27,01,30,5.90
2009,10,27,01,31,5.90
2009,10,27,01,32,5.90
2009,10,27,01,33,6.00
2009,10,27,01,34,6.00
2009,10,27,01,35,6.00
2009,10,27,01,36,6.00
2009,10,27,01,37,6.00
2009,10,27,01,38,6.10
2009,10,27,01,39,6.10
2009,10,27,01,40,6.20
2009,10,27,01,41,6.30
2009,10,27,01,42,6.30
2009,10,27,01,43,6.30
2009,10,27,01,44,6.30
2009,10,27,01,45,6.30
2009,10,27,01,46,6.30
2009,10,27,01,47,6.30
2009,10,27,01,48,6.40
2009,10,27,01,49,6.40
2009,10,27,01,50,6.50
2009,10,27,01,51,6.60
2009,10,27,01,52,6.60
2009,10,27,01,53,6.60
2009,10,27,01,54,6.60
2009,10,27,01,55,6.60
2009,10,27,01,56,6.70
2009,10,27,01,57,6.70
2009,10,27,01,58,6.70
2009,10,27,01,59,6.70
2009,10,27,02,00,6.70
2009,10,27,02,01,6.70
2009,10,27,02,02,6.80
2009,10,27,02,03,6.80
2009,10,27,02,04,6.80
2009,10,27,02,05,6.80
2009,10,27,02,06,6.80
2009,10,27,02,07,6.80
2009,10,27,02,08,6.70
2009,10,27,02,09,6.70
2009,10,27,02,10,6.60
2009,10,27,02,11,6.60
2009,10,27,02,12,6.60
2009,10,27,02,13,6.60
2009,10,27,02,14,6.60
2009,10,27,02,15,6.50
2009,10,27,02,16,6.40
2009,10,27,02,17,6.40
2009,10,27,02,18,6.40
2009,10,27,02,19,6.40
2009,10,27,02,20,6.40
2009,10,27,02,21,6.40
2009,10,27,02,22,6.40
2009,10,27,02,23,6.40
2009,10,27,02,24,6.40
2009,10,27,02,27,6.40
2009,10,27,02,28,6.30
2009,10,27,02,29,6.30
2009,10,27,02,30,6.40
2009,10,27,02,31,6.40
2009,10,27,02,32,6.40
2009,10,27,02,33,6.50
2009,10,27,02,34,6.60
2009,10,27,02,35,6.60
2009,10,27,02,36,6.60
2009,10,27,02,37,6.70
2009,10,27,02,38,6.70
2009,10,27,02,39,6.70
2009,10,27,02,40,6.70
2009,10,27,02,41,6.80
2009,10,27,02,42,6.80
2009,10,27,02,43,6.80
2009,10,27,02,44,6.80
2009,10,27,02,45,6.80
2009,10,27,02,46,6.80
2009,10,27,02,47,6.80
2009,10,27,02,48,6.80
2009,10,27,02,49,6.80
2009,10,27,02,50,6.80
2009,10,27,02,51,6.80
2009,10,27,02,52,6.80
2009,10,27,02,53,6.80
2009,10,27,02,54,6.80
2009,10,27,02,55,6.80
2009,10,27,02,56,6.80
2009,10,27,02,57,6.80
2009,10,27,02,58,6.80
2009,10,27,02,59,6.80
2009,10,27,03,00,6.80
2009,10,27,03,01,6.80
2009,10,27,03,02,6.90
2009,10,27,03,03,6.90
2009,10,27,03,04,6.80
2009,10,27,03,05,6.80
2009,10,27,03,06,6.80
2009,10,27,03,07,6.80
2009,10,27,03,08,6.80
2009,10,27,03,09,6.80
2009,10,27,03,10,6.90
2009,10,27,03,11,6.90
2009,10,27,03,12,6.90
2009,10,27,03,13,6.90
2009,10,27,03,14,6.90
2009,10,27,03,15,6.90
2009,10,27,03,16,6.80
2009,10,27,03,17,6.80
2009,10,27,03,18,6.80
2009,10,27,03,19,6.80
2009,10,27,03,20,6.80
2009,10,27,03,21,6.80
2009,10,27,03,22,6.70
2009,10,27,03,23,6.70
2009,10,27,03,24,6.60
2009,10,27,03,25,6.60
2009,10,27,03,26,6.50
2009,10,27,03,27,6.40
2009,10,27,03,28,6.40
2009,10,27,03,29,6.40
2009,10,27,03,30,6.40
2009,10,27,03,31,6.40
2009,10,27,03,32,6.40
2009,10,27,03,33,6.40
2009,10,27,03,34,6.40
2009,10,27,03,35,6.40
2009,10,27,03,36,6.40
2009,10,27,03,37,6.40
2009,10,27,03,38,6.50
2009,10,27,03,39,6.60
2009,10,27,03,40,6.60
2009,10,27,03,41,6.60
2009,10,27,03,42,6.60
2009,10,27,03,43,6.60
2009,10,27,03,44,6.60
2009,10,27,03,45,6.70
2009,10,27,03,46,6.70
2009,10,27,03,47,6.80
2009,10,27,03,48,6.70
2009,10,27,03,49,6.70
2009,10,27,03,50,6.70
2009,10,27,03,51,6.70
2009,10,27,03,52,6.70
2009,10,27,03,53,6.60
2009,10,27,03,54,6.50
2009,10,27,03,55,6.40
2009,10,27,03,56,6.20
2009,10,27,03,57,6.20
2009,10,27,03,58,6.10
2009,10,27,03,59,6.10
2009,10,27,04,00,6.00
2009,10,27,04,01,6.00
2009,10,27,04,02,6.00
2009,10,27,04,03,6.00
2009,10,27,04,04,6.00
2009,10,27,04,05,6.00
2009,10,27,04,06,6.00
2009,10,27,04,07,6.10
2009,10,27,04,08,6.10
2009,10,27,04,09,6.10
2009,10,27,04,10,6.00
2009,10,27,04,11,6.00
2009,10,27,04,12,6.00
2009,10,27,04,13,5.90
2009,10,27,04,14,5.80
2009,10,27,04,15,5.90
2009,10,27,04,16,5.90
2009,10,27,04,17,5.90
2009,10,27,04,18,5.90
2009,10,27,04,19,6.00
2009,10,27,04,20,6.00
2009,10,27,04,21,6.00
2009,10,27,04,22,5.90
2009,10,27,04,23,5.70
2009,10,27,04,24,5.60
2009,10,27,04,25,5.50
2009,10,27,04,26,5.30
2009,10,27,04,27,5.20
2009,10,27,04,28,5.10
2009,10,27,04,29,5.10
2009,10,27,04,30,5.10
2009,10,27,04,31,5.10
2009,10,27,04,32,5.10
2009,10,27,04,33,5.10
2009,10,27,04,34,5.10
2009,10,27,04,35,5.20
2009,10,27,04,36,5.20
2009,10,27,04,37,5.30
2009,10,27,04,38,5.40
2009,10,27,04,39,5.40
2009,10,27,04,40,5.50
2009,10,27,04,41,5.50
2009,10,27,04,42,5.60
2009,10,27,04,43,5.60
2009,10,27,04,44,5.70
2009,10,27,04,45,5.70
2009,10,27,04,46,5.70
2009,10,27,04,47,5.70
2009,10,27,04,48,5.70
2009,10,27,04,49,5.70
2009,10,27,04,50,5.70
2009,10,27,04,51,5.60
2009,10,27,04,52,5.60
2009,10,27,04,53,5.60
2009,10,27,04,54,5.50
2009,10,27,04,55,5.50
2009,10,27,04,56,5.50
2009,10,27,04,57,5.40
2009,10,27,04,58,5.40
2009,10,27,04,59,5.30
2009,10,27,05,00,5.30
2009,10,27,05,01,5.30
2009,10,27,05,02,5.30
2009,10,27,05,03,5.30
2009,10,27,05,04,5.20
2009,10,27,05,05,5.20
2009,10,27,05,06,5.20
2009,10,27,05,07,5.10
2009,10,27,05,08,5.10
2009,10,27,05,09,5.10
2009,10,27,05,10,5.10
2009,10,27,05,11,5.10
2009,10,27,05,12,5.00
2009,10,27,05,13,4.90
2009,10,27,05,14,4.90
2009,10,27,05,15,4.90
2009,10,27,05,16,4.90
2009,10,27,05,17,4.90
2009,10,27,05,18,4.90
2009,10,27,05,19,4.90
2009,10,27,05,20,4.90
2009,10,27,05,21,4.90
2009,10,27,05,22,5.00
2009,10,27,05,23,4.90
2009,10,27,05,24,4.90
2009,10,27,05,25,4.90
2009,10,27,05,26,4.90
2009,10,27,05,27,4.90
2009,10,27,05,28,4.90
2009,10,27,05,29,4.80
2009,10,27,05,30,4.70
2009,10,27,05,31,4.60
2009,10,27,05,32,4.50
2009,10,27,05,33,4.40
2009,10,27,05,34,4.30
2009,10,27,05,35,4.20
2009,10,27,05,36,4.10
2009,10,27,05,37,4.00
2009,10,27,05,38,4.00
2009,10,27,05,39,3.90
2009,10,27,05,40,3.80
2009,10,27,05,41,3.80
2009,10,27,05,42,3.70
2009,10,27,05,43,3.70
2009,10,27,05,44,3.70
2009,10,27,05,45,3.60
2009,10,27,05,46,3.60
2009,10,27,05,47,3.60
2009,10,27,05,48,3.60
2009,10,27,05,49,3.60
2009,10,27,05,50,3.60
2009,10,27,05,51,3.50
2009,10,27,05,52,3.50
2009,10,27,05,53,3.50
2009,10,27,05,54,3.40
2009,10,27,05,55,3.40
2009,10,27,05,56,3.40
2009,10,27,05,57,3.40
2009,10,27,05,58,3.40
2009,10,27,05,59,3.30
2009,10,27,06,00,3.30
2009,10,27,06,01,3.30
2009,10,27,06,02,3.30
2009,10,27,06,03,3.30
2009,10,27,06,04,3.30
2009,10,27,06,05,3.30
2009,10,27,06,06,3.30
2009,10,27,06,07,3.20
2009,10,27,06,08,3.20
2009,10,27,06,09,3.10
2009,10,27,06,10,3.10
2009,10,27,06,11,3.10
2009,10,27,06,12,3.00
2009,10,27,06,13,2.90
2009,10,27,06,14,2.80
2009,10,27,06,15,2.70
2009,10,27,06,16,2.50
2009,10,27,06,17,2.50
2009,10,27,06,18,2.40
2009,10,27,06,19,2.40
2009,10,27,06,20,2.40
2009,10,27,06,21,2.40
2009,10,27,06,22,2.40
2009,10,27,06,23,2.40
2009,10,27,06,24,2.50
2009,10,27,06,25,2.60
2009,10,27,06,26,2.60
2009,10,27,06,27,2.60
2009,10,27,06,28,2.50
2009,10,27,06,29,2.50
2009,10,27,06,30,2.50
2009,10,27,06,31,2.50
2009,10,27,06,32,2.50
2009,10,27,06,33,2.50
2009,10,27,06,34,2.40
2009,10,27,06,35,2.40
2009,10,27,06,36,2.40
2009,10,27,06,37,2.40
2009,10,27,06,38,2.30
2009,10,27,06,39,2.30
2009,10,27,06,40,2.30
2009,10,27,06,41,2.30
2009,10,27,06,42,2.30
2009,10,27,06,43,2.30
2009,10,27,06,44,2.30
2009,10,27,06,45,2.30
2009,10,27,06,46,2.30
2009,10,27,06,47,2.20
2009,10,27,06,48,2.20
2009,10,27,06,49,2.20
2009,10,27,06,50,2.30
2009,10,27,06,51,2.30
2009,10,27,06,52,2.40
2009,10,27,06,53,2.40
2009,10,27,06,54,2.40
2009,10,27,06,55,2.40
2009,10,27,06,56,2.40
2009,10,27,06,57,2.40
2009,10,27,06,58,2.40
2009,10,27,06,59,2.40
2009,10,27,07,00,2.40
2009,10,27,07,01,2.30
2009,10,27,07,02,2.30
2009,10,27,07,03,2.30
2009,10,27,07,04,2.30
2009,10,27,07,05,2.30
2009,10,27,07,06,2.30
2009,10,27,07,07,2.20
2009,10,27,07,08,2.20
2009,10,27,07,09,2.20
2009,10,27,07,10,2.30
2009,10,27,07,11,2.20
2009,10,27,07,12,2.20
2009,10,27,07,13,2.20
2009,10,27,07,14,2.20
2009,10,27,07,15,2.20
2009,10,27,07,16,2.20
2009,10,27,07,17,2.20
2009,10,27,07,18,2.10
2009,10,27,07,19,2.10
2009,10,27,07,20,2.00
2009,10,27,07,21,2.00
2009,10,27,07,22,2.00
2009,10,27,07,23,1.90
2009,10,27,07,24,1.90
2009,10,27,07,25,1.90
2009,10,27,07,26,1.90
2009,10,27,07,27,1.90
2009,10,27,07,28,1.90
2009,10,27,07,29,1.90
2009,10,27,07,30,1.90
2009,10,27,07,31,1.90
2009,10,27,07,32,2.00
2009,10,27,07,33,2.00
2009,10,27,07,34,2.00
2009,10,27,07,35,2.00
2009,10,27,07,36,2.00
2009,10,27,07,37,2.00
2009,10,27,07,38,1.90
2009,10,27,07,39,1.90
2009,10,27,07,40,1.80
2009,10,27,07,41,1.80
2009,10,27,07,42,1.80
2009,10,27,07,43,1.90
2009,10,27,07,44,1.90
2009,10,27,07,45,1.90
2009,10,27,07,46,1.90
2009,10,27,07,47,1.90
2009,10,27,07,48,1.90
2009,10,27,07,49,2.00
2009,10,27,07,50,2.00
2009,10,27,07,51,2.00
2009,10,27,07,52,2.10
2009,10,27,07,53,2.20
2009,10,27,07,54,2.20
2009,10,27,07,55,2.20
2009,10,27,07,56,2.10
2009,10,27,07,57,2.00
2009,10,27,07,58,1.80
2009,10,27,07,59,1.80
2009,10,27,08,00,1.80
2009,10,27,08,01,1.70
2009,10,27,08,02,1.60
2009,10,27,08,03,1.60
2009,10,27,08,04,1.60
2009,10,27,08,05,1.50
2009,10,27,08,06,1.50
2009,10,27,08,07,1.50
2009,10,27,08,08,1.60
2009,10,27,08,09,1.70
2009,10,27,08,10,1.90
2009,10,27,08,11,2.10
2009,10,27,08,12,2.20
2009,10,27,08,13,2.20
2009,10,27,08,14,2.10
2009,10,27,08,15,2.00
2009,10,27,08,16,2.00
2009,10,27,08,17,2.00
2009,10,27,08,18,1.90
2009,10,27,08,19,1.80
2009,10,27,08,20,1.80
2009,10,27,08,21,1.80
2009,10,27,08,22,1.80
2009,10,27,08,23,1.80
2009,10,27,08,24,1.80
2009,10,27,08,25,1.80
2009,10,27,08,26,1.80
2009,10,27,08,27,1.80
2009,10,27,08,28,1.90
2009,10,27,08,29,1.90
2009,10,27,08,30,1.90
2009,10,27,08,31,1.90
2009,10,27,08,32,1.90
2009,10,27,08,33,1.90
2009,10,27,08,34,2.00
2009,10,27,08,35,2.00
2009,10,27,08,36,2.00
2009,10,27,08,37,2.10
2009,10,27,08,38,2.00
2009,10,27,08,39,2.00
2009,10,27,08,40,1.90
2009,10,27,08,41,1.90
2009,10,27,08,42,2.00
2009,10,27,08,43,2.00
2009,10,27,08,44,2.10
2009,10,27,08,45,2.10
2009,10,27,08,46,2.10
2009,10,27,08,47,2.00
2009,10,27,08,48,2.00
2009,10,27,08,49,2.00
2009,10,27,08,50,2.00
2009,10,27,08,51,2.00
2009,10,27,08,52,2.00
2009,10,27,08,53,2.00
2009,10,27,08,54,2.10
2009,10,27,08,55,2.20
2009,10,27,08,56,2.20
2009,10,27,08,57,2.30
2009,10,27,08,58,2.20
2009,10,27,08,59,2.20
2009,10,27,09,00,2.20
2009,10,27,09,01,2.20
2009,10,27,09,02,2.20
2009,10,27,09,03,2.20
2009,10,27,09,04,2.20
2009,10,27,09,05,2.30
2009,10,27,09,06,2.30
2009,10,27,09,07,2.30
2009,10,27,09,08,2.30
2009,10,27,09,09,2.40
2009,10,27,09,10,2.40
2009,10,27,09,11,2.40
2009,10,27,09,12,2.50
2009,10,27,09,13,2.50
2009,10,27,09,14,2.50
2009,10,27,09,15,2.50
2009,10,27,09,16,2.50
2009,10,27,09,17,2.60
2009,10,27,09,18,2.60
2009,10,27,09,19,2.70
2009,10,27,09,20,2.70
2009,10,27,09,21,2.70
2009,10,27,09,22,2.80
2009,10,27,09,23,2.80
2009,10,27,09,24,2.90
2009,10,27,09,25,2.90
2009,10,27,09,26,3.00
2009,10,27,09,27,3.10
2009,10,27,09,28,3.30
2009,10,27,09,29,3.40
2009,10,27,09,30,3.50
2009,10,27,09,31,3.70
2009,10,27,09,32,3.90
2009,10,27,09,33,4.00
2009,10,27,09,34,4.00
2009,10,27,09,35,4.10
2009,10,27,09,36,4.20
2009,10,27,09,37,4.20
2009,10,27,09,38,4.20
2009,10,27,09,39,4.20
2009,10,27,09,40,4.30
2009,10,27,09,41,4.40
2009,10,27,09,42,4.50
2009,10,27,09,43,4.50
2009,10,27,09,44,4.60
2009,10,27,09,45,4.70
2009,10,27,09,46,4.80
2009,10,27,09,47,4.90
2009,10,27,09,48,5.00
2009,10,27,09,49,5.10
2009,10,27,09,50,5.20
2009,10,27,09,51,5.30
2009,10,27,09,52,5.30
2009,10,27,09,53,5.40
2009,10,27,09,54,5.50
2009,10,27,09,55,5.60
2009,10,27,09,56,5.60
2009,10,27,09,57,5.50
2009,10,27,09,58,5.50
2009,10,27,09,59,5.50
2009,10,27,10,00,5.50
2009,10,27,10,01,5.50
2009,10,27,10,02,5.60
2009,10,27,10,03,5.60
2009,10,27,10,04,5.70
2009,10,27,10,05,5.70
2009,10,27,10,06,5.80
2009,10,27,10,07,5.90
2009,10,27,10,08,6.00
2009,10,27,10,09,6.20
2009,10,27,10,10,6.20
2009,10,27,10,11,6.30
2009,10,27,10,12,6.40
2009,10,27,10,13,6.60
2009,10,27,10,14,6.60
2009,10,27,10,15,6.60
2009,10,27,10,16,6.60
2009,10,27,10,17,6.70
2009,10,27,10,18,6.70
2009,10,27,10,19,6.70
2009,10,27,10,20,6.70
2009,10,27,10,21,6.70
2009,10,27,10,22,6.70
2009,10,27,10,23,6.80
2009,10,27,10,24,6.80
2009,10,27,10,25,6.80
2009,10,27,10,26,6.90
2009,10,27,10,27,7.00
2009,10,27,10,28,7.10
2009,10,27,10,29,7.30
2009,10,27,10,30,7.40
2009,10,27,10,31,7.50
2009,10,27,10,32,7.60
2009,10,27,10,33,7.80
2009,10,27,10,34,7.90
2009,10,27,10,35,8.00
2009,10,27,10,36,8.10
2009,10,27,10,37,8.20
2009,10,27,10,38,8.30
2009,10,27,10,39,8.40
2009,10,27,10,40,8.50
2009,10,27,10,41,8.50
2009,10,27,10,42,8.60
2009,10,27,10,43,8.70
2009,10,27,10,44,8.70
2009,10,27,10,45,8.80
2009,10,27,10,46,8.80
2009,10,27,10,47,8.90
2009,10,27,10,48,9.00
2009,10,27,10,49,9.10
2009,10,27,10,50,9.10
2009,10,27,10,51,9.20
2009,10,27,10,52,9.20
2009,10,27,10,53,9.30
2009,10,27,10,54,9.40
2009,10,27,10,55,9.50
2009,10,27,10,56,9.60
2009,10,27,10,57,9.70
2009,10,27,10,58,9.70
2009,10,27,10,59,9.80
2009,10,27,11,00,9.80
2009,10,27,11,01,9.90
2009,10,27,11,02,9.90
2009,10,27,11,03,9.90
2009,10,27,11,04,9.90
2009,10,27,11,05,9.90
2009,10,27,11,06,9.90
2009,10,27,11,07,9.90
2009,10,27,11,08,10.10
2009,10,27,11,09,10.10
2009,10,27,11,10,10.10
2009,10,27,11,11,10.10
2009,10,27,11,12,10.20
2009,10,27,11,13,10.20
2009,10,27,11,14,10.30
2009,10,27,11,15,10.40
2009,10,27,11,16,10.40
2009,10,27,11,17,10.40
2009,10,27,11,18,10.40
2009,10,27,11,19,10.40
2009,10,27,11,20,10.50
2009,10,27,11,21,10.60
2009,10,27,11,22,10.60
2009,10,27,11,23,10.60
2009,10,27,11,24,10.60
2009,10,27,11,25,10.60
2009,10,27,11,26,10.60
2009,10,27,11,27,10.60
2009,10,27,11,28,10.60
2009,10,27,11,29,10.60
2009,10,27,11,30,10.60
2009,10,27,11,31,10.60
2009,10,27,11,32,10.70
2009,10,27,11,33,10.70
2009,10,27,11,34,10.80
2009,10,27,11,35,10.90
2009,10,27,11,36,10.90
2009,10,27,11,37,10.90
2009,10,27,11,38,11.10
2009,10,27,11,39,11.10
2009,10,27,11,40,11.20
2009,10,27,11,41,11.20
2009,10,27,11,42,11.20
2009,10,27,11,43,11.20
2009,10,27,11,44,11.20
2009,10,27,11,45,11.30
2009,10,27,11,46,11.30
2009,10,27,11,47,11.30
2009,10,27,11,48,11.20
2009,10,27,11,49,11.10
2009,10,27,11,50,11.10
2009,10,27,11,51,11.10
2009,10,27,11,52,11.00
2009,10,27,11,53,10.90
2009,10,27,11,54,10.90
2009,10,27,11,55,10.90
2009,10,27,11,56,10.90
2009,10,27,11,57,10.90
2009,10,27,11,58,10.90
2009,10,27,11,59,10.90
2009,10,27,12,00,10.80
2009,10,27,12,01,10.80
2009,10,27,12,02,10.80
2009,10,27,12,03,10.80
2009,10,27,12,04,10.80
2009,10,27,12,05,10.90
2009,10,27,12,06,11.10
2009,10,27,12,07,11.10
2009,10,27,12,08,11.20
2009,10,27,12,09,11.20
2009,10,27,12,10,11.30
2009,10,27,12,11,11.30
2009,10,27,12,12,11.20
2009,10,27,12,13,11.20
2009,10,27,12,14,11.10
2009,10,27,12,15,11.10
2009,10,27,12,16,11.10
2009,10,27,12,17,11.10
2009,10,27,12,18,11.00
2009,10,27,12,19,10.90
2009,10,27,12,20,10.90
2009,10,27,12,21,10.90
2009,10,27,12,22,11.00
2009,10,27,12,23,11.10
2009,10,27,12,24,11.10
2009,10,27,12,25,11.20
2009,10,27,12,26,11.30
2009,10,27,12,27,11.30
2009,10,27,12,28,11.40
2009,10,27,12,29,11.40
2009,10,27,12,30,11.40
2009,10,27,12,31,11.40
2009,10,27,12,32,11.40
2009,10,27,12,33,11.40
2009,10,27,12,34,11.50
2009,10,27,12,35,11.60
2009,10,27,12,36,11.50
2009,10,27,12,37,11.40
2009,10,27,12,38,11.40
2009,10,27,12,39,11.40
2009,10,27,12,40,11.30
2009,10,27,12,41,11.30
2009,10,27,12,42,11.40
2009,10,27,12,43,11.40
2009,10,27,12,44,11.40
2009,10,27,12,45,11.40
2009,10,27,12,46,11.40
2009,10,27,12,47,11.60
2009,10,27,12,48,11.60
2009,10,27,12,49,11.60
2009,10,27,12,50,11.60
2009,10,27,12,51,11.60
2009,10,27,12,52,11.60
2009,10,27,12,53,11.60
2009,10,27,12,54,11.50
2009,10,27,12,55,11.40
2009,10,27,12,56,11.40
2009,10,27,12,57,11.40
2009,10,27,12,58,11.30
2009,10,27,12,59,11.20
2009,10,27,13,00,11.20
2009,10,27,13,01,11.10
2009,10,27,13,02,11.00
2009,10,27,13,03,10.90
2009,10,27,13,04,10.90
2009,10,27,13,05,10.90
2009,10,27,13,06,10.90
2009,10,27,13,07,10.90
2009,10,27,13,08,10.90
2009,10,27,13,09,10.90
2009,10,27,13,10,10.90
2009,10,27,13,11,10.90
2009,10,27,13,12,10.90
2009,10,27,13,13,10.90
2009,10,27,13,14,10.90
2009,10,27,13,15,10.90
2009,10,27,13,16,10.90
2009,10,27,13,17,10.90
2009,10,27,13,18,11.00
2009,10,27,13,19,11.10
2009,10,27,13,20,11.10
2009,10,27,13,21,11.10
2009,10,27,13,22,11.10
2009,10,27,13,23,11.20
2009,10,27,13,24,11.20
2009,10,27,13,25,11.20
2009,10,27,13,26,11.20
2009,10,27,13,27,11.20
2009,10,27,13,28,11.20
2009,10,27,13,29,11.20
2009,10,27,13,30,11.30
2009,10,27,13,31,11.30
2009,10,27,13,32,11.30
2009,10,27,13,33,11.30
2009,10,27,13,34,11.30
2009,10,27,13,35,11.20
2009,10,27,13,36,11.20
2009,10,27,13,37,11.20
2009,10,27,13,38,11.20
2009,10,27,13,39,11.20
2009,10,27,13,40,11.30
2009,10,27,13,41,11.40
2009,10,27,13,42,11.40
2009,10,27,13,43,11.40
2009,10,27,13,44,11.40
2009,10,27,13,45,11.60
2009,10,27,13,46,11.60
2009,10,27,13,47,11.60
2009,10,27,13,48,11.60
2009,10,27,13,49,11.60
2009,10,27,13,50,11.60
2009,10,27,13,51,11.60
2009,10,27,13,52,11.50
2009,10,27,13,53,11.40
2009,10,27,13,54,11.40
2009,10,27,13,55,11.40
2009,10,27,13,56,11.40
2009,10,27,13,57,11.40
2009,10,27,13,58,11.40
2009,10,27,13,59,11.50
2009,10,27,14,00,11.60
2009,10,27,14,01,11.60
2009,10,27,14,02,11.70
2009,10,27,14,03,11.70
2009,10,27,14,04,11.80
2009,10,27,14,05,11.80
2009,10,27,14,06,11.80
2009,10,27,14,07,11.80
2009,10,27,14,08,11.80
2009,10,27,14,09,11.80
2009,10,27,14,10,11.80
2009,10,27,14,11,11.80
2009,10,27,14,12,11.80
2009,10,27,14,13,11.70
2009,10,27,14,14,11.60
2009,10,27,14,15,11.50
2009,10,27,14,16,11.40
2009,10,27,14,17,11.40
2009,10,27,14,18,11.30
2009,10,27,14,19,11.30
2009,10,27,14,20,11.30
2009,10,27,14,21,11.30
2009,10,27,14,22,11.30
2009,10,27,14,23,11.30
2009,10,27,14,24,11.40
2009,10,27,14,25,11.40
2009,10,27,14,26,11.40
2009,10,27,14,27,11.50
2009,10,27,14,28,11.60
2009,10,27,14,29,11.60
2009,10,27,14,30,11.70
2009,10,27,14,31,11.80
2009,10,27,14,32,11.80
2009,10,27,14,33,11.90
2009,10,27,14,34,11.90
2009,10,27,14,35,11.90
2009,10,27,14,36,11.90
2009,10,27,14,37,11.80
2009,10,27,14,38,11.80
2009,10,27,14,39,11.80
2009,10,27,14,40,11.70
2009,10,27,14,41,11.60
2009,10,27,14,42,11.60
2009,10,27,14,43,11.60
2009,10,27,14,44,11.60
2009,10,27,14,45,11.70
2009,10,27,14,46,11.70
2009,10,27,14,47,11.60
2009,10,27,14,48,11.60
2009,10,27,14,49,11.60
2009,10,27,14,50,11.60
2009,10,27,14,51,11.60
2009,10,27,14,52,11.60
2009,10,27,14,53,11.60
2009,10,27,14,54,11.60
2009,10,27,14,55,11.60
2009,10,27,14,56,11.60
2009,10,27,14,57,11.60
2009,10,27,14,58,11.60
2009,10,27,14,59,11.60
2009,10,27,15,00,11.50
2009,10,27,15,01,11.40
2009,10,27,15,02,11.40
2009,10,27,15,03,11.40
2009,10,27,15,04,11.40
2009,10,27,15,05,11.40
2009,10,27,15,06,11.40
2009,10,27,15,07,11.50
2009,10,27,15,08,11.60
2009,10,27,15,09,11.60
2009,10,27,15,10,11.70
2009,10,27,15,11,11.80
2009,10,27,15,12,11.80
2009,10,27,15,13,11.90
2009,10,27,15,14,12.00
2009,10,27,15,15,12.00
2009,10,27,15,16,12.10
2009,10,27,15,17,12.10
2009,10,27,15,18,12.00
2009,10,27,15,19,12.00
2009,10,27,15,20,12.00
2009,10,27,15,21,12.00
2009,10,27,15,22,12.10
2009,10,27,15,23,12.10
2009,10,27,15,24,12.10
2009,10,27,15,25,12.20
2009,10,27,15,26,12.20
2009,10,27,15,27,12.20
2009,10,27,15,28,12.20
2009,10,27,15,29,12.10
2009,10,27,15,30,12.00
2009,10,27,15,31,11.90
2009,10,27,15,32,11.90
2009,10,27,15,33,11.90
2009,10,27,15,34,11.80
2009,10,27,15,35,11.80
2009,10,27,15,36,11.80
2009,10,27,15,37,11.60
2009,10,27,15,38,11.50
2009,10,27,15,39,11.40
2009,10,27,15,40,11.40
2009,10,27,15,41,11.30
2009,10,27,15,42,11.30
2009,10,27,15,43,11.20
2009,10,27,15,44,11.20
2009,10,27,15,45,11.10
2009,10,27,15,46,11.10
2009,10,27,15,47,11.10
2009,10,27,15,48,11.10
2009,10,27,15,49,11.10
2009,10,27,15,50,11.10
2009,10,27,15,51,11.00
2009,10,27,15,52,10.90
2009,10,27,15,53,10.90
2009,10,27,15,54,10.90
2009,10,27,15,55,10.90
2009,10,27,15,56,10.90
2009,10,27,15,57,10.90
2009,10,27,15,58,10.90
2009,10,27,15,59,10.90
2009,10,27,16,00,10.90
2009,10,27,16,01,10.90
2009,10,27,16,02,10.90
2009,10,27,16,03,10.90
2009,10,27,16,04,10.90
2009,10,27,16,05,10.90
2009,10,27,16,06,10.90
2009,10,27,16,07,10.90
2009,10,27,16,08,10.90
2009,10,27,16,09,10.90
2009,10,27,16,10,10.90
2009,10,27,16,11,10.90
2009,10,27,16,12,10.90
2009,10,27,16,13,10.90
2009,10,27,16,14,10.90
2009,10,27,16,15,10.90
2009,10,27,16,16,10.90
2009,10,27,16,17,11.00
2009,10,27,16,18,11.10
2009,10,27,16,19,11.10
2009,10,27,16,20,11.10
2009,10,27,16,21,11.10
2009,10,27,16,22,11.20
2009,10,27,16,23,11.20
2009,10,27,16,24,11.30
2009,10,27,16,25,11.40
2009,10,27,16,26,11.40
2009,10,27,16,27,11.40
2009,10,27,16,28,11.40
2009,10,27,16,29,11.40
2009,10,27,16,30,11.40
2009,10,27,16,31,11.40
2009,10,27,16,32,11.30
2009,10,27,16,33,11.30
2009,10,27,16,34,11.30
2009,10,27,16,35,11.40
2009,10,27,16,36,11.40
2009,10,27,16,37,11.40
2009,10,27,16,38,11.40
2009,10,27,16,39,11.40
2009,10,27,16,40,11.40
2009,10,27,16,41,11.40
2009,10,27,16,42,11.30
2009,10,27,16,43,11.30
2009,10,27,16,44,11.20
2009,10,27,16,45,11.20
2009,10,27,16,46,11.20
2009,10,27,16,47,11.20
2009,10,27,16,48,11.20
2009,10,27,16,49,11.20
2009,10,27,16,50,11.20
2009,10,27,16,51,11.20
2009,10,27,16,52,11.20
2009,10,27,16,53,11.20
2009,10,27,16,54,11.30
2009,10,27,16,55,11.30
2009,10,27,16,56,11.30
2009,10,27,16,57,11.30
2009,10,27,16,58,11.20
2009,10,27,16,59,11.20
2009,10,27,17,00,11.20
2009,10,27,17,01,11.20
2009,10,27,17,02,11.20
2009,10,27,17,03,11.10
2009,10,27,17,04,11.10
2009,10,27,17,05,11.10
2009,10,27,17,06,11.10
2009,10,27,17,07,11.10
2009,10,27,17,08,11.10
2009,10,27,17,09,11.10
2009,10,27,17,10,11.00
2009,10,27,17,11,10.90
2009,10,27,17,12,10.90
2009,10,27,17,13,10.90
2009,10,27,17,14,10.90
2009,10,27,17,15,10.90
2009,10,27,17,16,10.90
2009,10,27,17,17,10.90
2009,10,27,17,18,10.90
2009,10,27,17,19,10.90
2009,10,27,17,20,10.90
2009,10,27,17,21,10.90
2009,10,27,17,22,10.90
2009,10,27,17,23,10.90
2009,10,27,17,24,10.90
2009,10,27,17,25,10.90
2009,10,27,17,26,10.90
2009,10,27,17,27,10.90
2009,10,27,17,28,10.90
2009,10,27,17,29,10.90
2009,10,27,17,30,10.80
2009,10,27,17,31,10.80
2009,10,27,17,32,10.70
2009,10,27,17,33,10.70
2009,10,27,17,34,10.70
2009,10,27,17,35,10.60
2009,10,27,17,36,10.60
2009,10,27,17,37,10.60
2009,10,27,17,38,10.60
2009,10,27,17,39,10.60
2009,10,27,17,40,10.50
2009,10,27,17,41,10.40
2009,10,27,17,42,10.40
2009,10,27,17,43,10.40
2009,10,27,17,44,10.30
2009,10,27,17,45,10.20
2009,10,27,17,46,10.10
2009,10,27,17,47,10.10
2009,10,27,17,48,9.90
2009,10,27,17,49,9.90
2009,10,27,17,50,9.90